This is the latest recevied weather packets stored in our database for station/object IW0HP-3. If no packets are shown the sender has not sent any weather packets the latest 10 day(s).
| Time | Temp. | Humidity | Pressure | Rain* | Wind** | Luminosity | Snow |
|---|---|---|---|---|---|---|---|
| 1777685325 | 13.33° C | 34% | 1025.1 hPa | - | - | - | - |
| 1777684120 | 13.33° C | 34% | 1025 hPa | - | - | - | - |
| 1777682916 | 13.89° C | 34% | 1025.1 hPa | - | - | - | - |
| 1777681711 | 13.89° C | 32% | 1025.3 hPa | - | - | - | - |
| 1777680506 | 14.44° C | 30% | 1025.5 hPa | - | - | - | - |
| 1777679301 | 15° C | 30% | 1025.5 hPa | - | - | - | - |
| 1777678096 | 15° C | 30% | 1025.4 hPa | - | - | - | - |
| 1777676891 | 15° C | 29% | 1025.7 hPa | - | - | - | - |
| 1777675686 | 15° C | 28% | 1025.9 hPa | - | - | - | - |
| 1777674481 | 15.56° C | 26% | 1025.9 hPa | - | - | - | - |
| 1777673276 | 15.56° C | 25% | 1025.9 hPa | - | - | - | - |
| 1777672071 | 16.11° C | 26% | 1025.6 hPa | - | - | - | - |
| 1777670866 | 16.11° C | 27% | 1025.3 hPa | - | - | - | - |
| 1777669662 | 16.67° C | 27% | 1025.2 hPa | - | - | - | - |
| 1777668457 | 17.22° C | 29% | 1024.8 hPa | - | - | - | - |
| 1777667253 | 17.78° C | 41% | 1023.4 hPa | - | - | - | - |
| 1777666048 | 17.78° C | 46% | 1022.5 hPa | - | - | - | - |
| 1777663639 | 18.33° C | 41% | 1021.7 hPa | - | - | - | - |
| 1777662435 | 18.33° C | 28% | 1022.6 hPa | - | - | - | - |
| 1777661230 | 18.33° C | 28% | 1022.3 hPa | - | - | - | - |
| 1777660026 | 18.89° C | 28% | 1021.9 hPa | - | - | - | - |
| 1777658821 | 20.56° C | 25% | 1022 hPa | - | - | - | - |
| 1777657617 | 25° C | 20% | 1022.2 hPa | - | - | - | - |
| 1777656412 | 26.67° C | 21% | 1022 hPa | - | - | - | - |
| 1777655208 | 22.22° C | 25% | 1021.3 hPa | - | - | - | - |
* Rain since midnight (hover to see other rain measurements)
** Current wind speed in m/s (hover to see current wind gust speed)